Tupelo, MS

7:57 AM CDT on March 30, 2017 (GMT -0500)
Tupelo Regional

Weather History for KTUP - January, 2014

Change the Weather History Date:

Saturday, January 4, 2014

  Actual Average Record
Temperature  
Mean Temperature 35 °F 42 °F  
Max Temperature 49 °F 51 °F 76 °F (2004)
Min Temperature 21 °F 32 °F 13 °F (1999)
Degree Days  
Heating Degree Days 30 23  
Month to date heating degree days 122 92  
Since 1 July heating degree days 1415 1265  
Cooling Degree Days 0 0  
Month to date cooling degree days 0 0  
Year to date cooling degree days 0 0  
Moisture  
Dew Point 24 °F    
Average Humidity 64    
Maximum Humidity 79    
Minimum Humidity 48    
Precipitation  
Precipitation 0.00 in 0.16 in 2.88 in (1949)
Month to date precipitation 0.18 0.61  
Year to date precipitation 0.18 0.61  
Snow  
Snow 0.00 in 0.00 in 0.70 in (1985)
Month to date snowfall 0.0 0.1  
Since 1 July snowfall T 0.4  
Snow Depth 0.00 in    
Sea Level Pressure  
Sea Level Pressure 30.19 in    
Wind  
Wind Speed 9 mph (South)    
Max Wind Speed 20 mph    
Max Gust Speed 25 mph    
Visibility 10 miles    
Events      
T = Trace of Precipitation, MM = Missing Value Source: NWS Daily Summary

Daily Weather History Graph

Daily Weather History Graph

Search for Another Location

Airport or City:

Trip Planner

Search our weather history database for the weather conditions in past years. The results will help you decide how hot, cold, wet, or windy it might be!

Date:

Astronomy

Jan. 04, 2014 Rise Set
Actual Time 7:01 AM CST 4:58 PM CST
Civil Twilight 6:34 AM CST 5:26 PM CST
Nautical Twilight 6:02 AM CST 5:57 PM CST
Astronomical Twilight 5:32 AM CST 6:28 PM CST
Moon 9:17 AM CST (1/4) 9:06 PM CST (1/4)
Length of Visible Light 10h 52m
Length of Day
9h 57m
Waxing Crescent, 15% of the Moon is Illuminated
Jan 4
Waxing Crescent
Jan 7
First Quarter
Jan 15
Full
Jan 23
Last Quarter
Jan 30
New

Hourly Weather History & Observations

Time (CST) Temp. Windchill Dew Point Humidity Pressure Visibility Wind Dir Wind Speed Gust Speed Precip Events Conditions
12:53 AM 27.0 °F 18.7 °F 12.9 °F 56% 30.29 in 10.0 mi South 8.1 mph - N/A   Clear
1:53 AM 24.1 °F 18.2 °F 12.9 °F 62% 30.31 in 10.0 mi South 4.6 mph - N/A   Clear
2:53 AM 24.1 °F - 12.9 °F 62% 30.31 in 10.0 mi Calm Calm - N/A   Clear
3:53 AM 21.9 °F - 14.0 °F 72% 30.31 in 10.0 mi Calm Calm - N/A   Clear
4:53 AM 23.0 °F 18.4 °F 14.0 °F 68% 30.30 in 10.0 mi South 3.5 mph - N/A   Clear
5:53 AM 23.0 °F 17.0 °F 12.9 °F 65% 30.30 in 10.0 mi South 4.6 mph - N/A   Clear
6:53 AM 24.1 °F 15.2 °F 14.0 °F 65% 30.29 in 10.0 mi South 8.1 mph - N/A   Clear
7:53 AM 26.1 °F 18.4 °F 16.0 °F 66% 30.30 in 10.0 mi South 6.9 mph - N/A   Clear
8:53 AM 30.9 °F 21.7 °F 17.1 °F 57% 30.30 in 10.0 mi South 11.5 mph - N/A   Clear
9:53 AM 36.0 °F 26.3 °F 19.0 °F 50% 30.29 in 10.0 mi SSW 16.1 mph - N/A   Clear
10:53 AM 39.9 °F 31.4 °F 21.0 °F 47% 30.26 in 10.0 mi SSW 16.1 mph - N/A   Clear
11:53 AM 43.0 °F 35.4 °F 25.0 °F 49% 30.21 in 10.0 mi SSW 16.1 mph 24.2 mph N/A   Clear
12:53 PM 46.0 °F 39.9 °F 28.0 °F 50% 30.17 in 10.0 mi SSW 13.8 mph 20.7 mph N/A   Clear
1:53 PM 46.9 °F - 30.0 °F 52% 30.13 in 10.0 mi South 13.8 mph - N/A   Clear
2:53 PM 48.0 °F - 30.9 °F 52% 30.12 in 10.0 mi SSW 15.0 mph - N/A   Clear
3:53 PM 48.0 °F - 32.0 °F 54% 30.10 in 10.0 mi SSW 15.0 mph 21.9 mph N/A   Clear
4:53 PM 45.0 °F 40.1 °F 33.1 °F 63% 30.09 in 10.0 mi SSW 9.2 mph - N/A   Clear
5:53 PM 41.0 °F 37.1 °F 32.0 °F 70% 30.08 in 10.0 mi South 5.8 mph - N/A   Clear
6:53 PM 43.0 °F 38.8 °F 33.1 °F 68% 30.07 in 10.0 mi South 6.9 mph - N/A   Clear
7:53 PM 43.0 °F 37.7 °F 34.0 °F 71% 30.07 in 10.0 mi South 9.2 mph - N/A   Clear
8:53 PM 41.0 °F 35.8 °F 34.0 °F 76% 30.08 in 10.0 mi South 8.1 mph - N/A   Clear
9:53 PM 41.0 °F 36.4 °F 34.0 °F 76% 30.07 in 10.0 mi South 6.9 mph - N/A   Clear
10:53 PM 39.0 °F 34.0 °F 33.1 °F 79% 30.08 in 10.0 mi South 6.9 mph - N/A   Clear
11:53 PM 41.0 °F 36.4 °F 34.0 °F 76% 30.08 in 10.0 mi South 6.9 mph - N/A   Overcast